Regional Weather Roundup
Issued by NWS

Home | Current Version | Previous Version | Text Only | Print | Product List | Glossary Off
Versions: 1 2 3 4 5 6 7 8 9 10 11 12 13 14 15 16 17 18 19 20 21 22 23 24 25 26 27 28 29 30 31 32 33 34 35 36 37 38 39 40 41 42 43 44 45 46 47 48 49 50

000
ASUS43 KLSX 280007
RWRMO

WEATHER SUMMARY FOR MISSOURI
NATIONAL WEATHER SERVICE SPRINGFIELD MO
700 PM CDT SAT AUG 27 2016

NOTE: "FAIR" INDICATES FEW OR NO CLOUDS BELOW 12,000 FEET WITH NO
       SIGNIFICANT WEATHER AND/OR OBSTRUCTIONS TO VISIBILITY.
       CURRENT SKY AND/OR WEATHER CONDITIONS ARE NOT AVAILABLE FOR
       CHILLICOTHE AND FARMINGTON.

MOZ001>031-035>038-043-044-053-054-280100-
...NORTHERN AND WESTERN MISSOURI...

CITY           SKY/WX    TMP DP  RH WIND       PRES   REMARKS
KANSAS CTY INT MOCLDY    82  69  64 SE9       30.00R
6HR MIN TEMP:  82; 6HR MAX TEMP:  88;

KANSAS C DTWN  CLOUDY    80  70  71 E7        29.98R
6HR MIN TEMP:  80; 6HR MAX TEMP:  89; 6HR PCP: TRACE;

LEE`S SUMMIT   CLEAR     84  71  65 S5        30.01R
6HR MIN TEMP:  83; 6HR MAX TEMP:  88;

ST JOSEPH      SUNNY     85  71  63 CALM      29.99S HX  90
6HR MIN TEMP:  81; 6HR MAX TEMP:  86;

KIRKSVILLE     LGT RAIN  81  71  71 CALM      30.03R
6HR MIN TEMP:  81; 6HR MAX TEMP:  87; 6HR PCP: TRACE;


$$
MOZ066>068-077>081-088>096-101>105-280100-
...SOUTHWEST MISSOURI...

CITY           SKY/WX    TMP DP  RH WIND       PRES   REMARKS
SPRINGFIELD    CLOUDY    82  71  69 NE7       30.02S
6HR MIN TEMP:  82; 6HR MAX TEMP:  90;

JOPLIN         CLEAR     86  71  60 E6        29.99S HX  91
6HR MIN TEMP:  84; 6HR MAX TEMP:  89;

BRANSON        MOCLDY    77  72  83 SE6       30.04S

$$
MOZ032>034-039>042-045>050-055>058-069>072-280100-
...CENTRAL MISSOURI...

CITY           SKY/WX    TMP DP  RH WIND       PRES   REMARKS
COLUMBIA       PTCLDY    83  72  69 SE5       30.03R
6HR MIN TEMP:  83; 6HR MAX TEMP:  88;

JEFFERSON CITY CLOUDY    85  74  69 E5        30.00S HX  92
6HR MIN TEMP:  84; 6HR MAX TEMP:  89;

ROLLA          PTCLDY    81  74  79 N7        30.03R
6HR MIN TEMP:  81; 6HR MAX TEMP:  88;

SEDALIA        CLEAR     86  70  58 S3        30.02S HX  90
6HR MIN TEMP:  86; 6HR MAX TEMP:  89;

WHITEMAN AFB   PTCLDY    84  73  70 S5        30.00R HX  91
OSAGE BEACH    CLOUDY    79  71  76 SW3       30.03R

$$
MOZ051-052-059>065-280100-
...EAST CENTRAL MISSOURI...

CITY           SKY/WX    TMP DP  RH WIND       PRES   REMARKS
ST LOUIS INTL  CLOUDY    82  68  62 SE13      30.03R THUNDER
6HR MIN TEMP:  82; 6HR MAX TEMP:  94; 6HR PCP: TRACE;

SPIRIT OF STL  CLOUDY    83  71  67 S9        30.01R
6HR MIN TEMP:  83; 6HR MAX TEMP:  93;

ST CHARLES     TSTM      77  76  96 NE21      30.02R FOG
6HR MIN TEMP:  78; 6HR MAX TEMP:  91; 6HR PCP:  0.31;


$$
MOZ072>076-082>087-097>100-106>115-280100-
...SOUTH CENTRAL AND SOUTHEAST MISSOURI...

CITY           SKY/WX    TMP DP  RH WIND       PRES   REMARKS
CAPE GIRARDEAU CLEAR     84  75  74 SE7       30.01F HX  92
6HR MIN TEMP:  84; 6HR MAX TEMP:  90;

FARMINGTON     CLEAR     83  74  74 SE6       30.05R
6HR MIN TEMP:  83; 6HR MAX TEMP:  90;

POPLAR BLUFF   CLEAR     84  73  69 SE5       30.00S HX  90
6HR MIN TEMP:  84; 6HR MAX TEMP:  91;

WEST PLAINS    PTCLDY    84  70  62 SE5       30.06S
6HR MIN TEMP:  82; 6HR MAX TEMP:  87;


$$



USA.gov is the U.S. government's official web portal to all federal, state and local government web resources and services.